This is the latest recevied weather packets stored in our database for station/object DC0PP-10. If no packets are shown the sender has not sent any weather packets the latest 10 day(s).
| Time | Temp. | Humidity | Pressure | Rain* | Wind** | Luminosity | Snow |
|---|---|---|---|---|---|---|---|
| 1777961452 | 15.56° C | 79% | 1011.8 hPa | - | - | - | - |
| 1777960551 | 15° C | 82% | 1011.6 hPa | - | - | - | - |
| 1777959651 | 14.44° C | 87% | 1011.7 hPa | - | - | - | - |
| 1777958751 | 13.89° C | 87% | 1011.5 hPa | - | - | - | - |
| 1777957851 | 13.89° C | 88% | 1011.7 hPa | - | - | - | - |
| 1777956951 | 13.89° C | 90% | 1012 hPa | - | - | - | - |
| 1777956051 | 13.89° C | 89% | 1011.8 hPa | - | - | - | - |
| 1777955151 | 13.89° C | 88% | 1011.8 hPa | - | - | - | - |
| 1777954250 | 14.44° C | 87% | 1011.8 hPa | - | - | - | - |
| 1777953350 | 13.89° C | 91% | 1011.8 hPa | - | - | - | - |
| 1777952450 | 13.33° C | 94% | 1011.8 hPa | - | - | - | - |
| 1777951550 | 13.33° C | 93% | 1011.7 hPa | - | - | - | - |
| 1777950650 | 13.33° C | 93% | 1011.8 hPa | - | - | - | - |
| 1777949750 | 13.89° C | 94% | 1012 hPa | - | - | - | - |
| 1777948849 | 13.89° C | 93% | 1012.1 hPa | - | - | - | - |
| 1777947949 | 13.89° C | 94% | 1012.2 hPa | - | - | - | - |
| 1777947049 | 13.89° C | 94% | 1012.5 hPa | - | - | - | - |
| 1777946149 | 13.89° C | 93% | 1012.7 hPa | - | - | - | - |
| 1777945248 | 14.44° C | 89% | 1012.7 hPa | - | - | - | - |
| 1777944348 | 14.44° C | 89% | 1012.9 hPa | - | - | - | - |
| 1777943448 | 14.44° C | 90% | 1012.9 hPa | - | - | - | - |
| 1777942547 | 15° C | 89% | 1013 hPa | - | - | - | - |
| 1777941647 | 15° C | 91% | 1013.3 hPa | - | - | - | - |
| 1777940756 | 15° C | 90% | 1013.4 hPa | - | - | - | - |
| 1777939856 | 15° C | 91% | 1013.6 hPa | - | - | - | - |
* Rain since midnight (hover to see other rain measurements)
** Current wind speed in m/s (hover to see current wind gust speed)